Location: Maccacari
(45.1333°N, 11.1333°E)
Time: 11:20:25
(UTC+00:00)

Vanguard 2 - Pass Details

Date: 26 January 2021
Orbit: 552 x 2938 km, 32.9° (Epoch: 24 February)

Event Time Altitude Azimuth Distance (km) Brightness Sun altitude
Rises 19:25:13 0° 249° (WSW) 2,996 11.4 -33.5°
Reaches altitude 10° 19:28:44 10° 219° (SW) 2,355 10.3 -34.1°
Enters shadow 19:30:13 12° 202° (SSW) 2,325 10.1 -34.4°
Maximum altitude 19:31:03 13° 193° (SSW) 2,378 - -34.5°
Drops below altitude 10° 19:33:44 10° 169° (S) 2,833 - -35.0°
Sets 19:39:01 0° 144° (SE) 4,358 - -35.9°
